Newport News, VA

1:01 AM EST on November 19, 2017 (GMT -0500)
Newport News-Williamsburg International

Weather History for KPHF - February, 2012

Change the Weather History Date:

Tuesday, February 21, 2012

  Actual Average Record
Temperature  
Mean Temperature 38 °F -  
Max Temperature 54 °F 51 °F 77 °F (2014)
Min Temperature 23 °F 31 °F 6 °F (2015)
Degree Days  
Heating Degree Days 26    
Moisture  
Dew Point 32 °F    
Average Humidity 82    
Maximum Humidity 100    
Minimum Humidity 63    
Precipitation  
Precipitation 0.00 in - - ()
Sea Level Pressure  
Sea Level Pressure 30.23 in    
Wind  
Wind Speed 2 mph (SSW)    
Max Wind Speed 13 mph    
Max Gust Speed 25 mph    
Visibility 6 miles    
Events Fog , Rain    
Averages and records for this station are not official NWS values.
T = Trace of Precipitation, MM = Missing Value Source: NWS Daily Summary

Daily Weather History Graph

Daily Weather History Graph

Search for Another Location

Airport or City:

Trip Planner

Search our weather history database for the weather conditions in past years. The results will help you decide how hot, cold, wet, or windy it might be!

Date:

Astronomy

Feb. 21, 2012 Rise Set
Actual Time 6:48 AM EST 5:51 PM EST
Civil Twilight 6:21 AM EST 6:17 PM EST
Nautical Twilight 5:51 AM EST 6:48 PM EST
Astronomical Twilight 5:21 AM EST 7:18 PM EST
Moon 6:16 AM EST (2/21) 5:54 PM EST (2/21)
Length of Visible Light 11h 56m
Length of Day
11h 03m
Waning Crescent, 0% of the Moon is Illuminated
Feb 21
Waning Crescent
Feb 21
New
Feb 29
First Quarter
Mar 8
Full
Mar 14
Last Quarter

Hourly Weather History & Observations

Time (EST) Temp. Windchill Dew Point Humidity Pressure Visibility Wind Dir Wind Speed Gust Speed Precip Events Conditions
12:54 AM 28.0 °F - 26.1 °F 92% 30.36 in 9.0 mi Calm Calm - 0.00 in   Clear
1:54 AM 28.0 °F - 25.0 °F 88% 30.37 in 7.0 mi Calm Calm - 0.00 in   Clear
2:54 AM 26.1 °F - 24.1 °F 92% 30.35 in 7.0 mi Calm Calm - N/A   Clear
3:54 AM 27.0 °F - 25.0 °F 92% 30.35 in 6.0 mi Calm Calm - N/A   Clear
4:22 AM 26.6 °F - 24.8 °F 93% 30.34 in 1.5 mi Calm Calm - N/A   Clear
4:30 AM 24.8 °F - 24.8 °F 100% 30.34 in 1.0 mi Calm Calm - N/A   Mist
4:37 AM 26.6 °F - 24.8 °F 93% 30.34 in 0.2 mi Calm Calm - N/A Fog Light Freezing Fog
4:54 AM 25.0 °F - 23.0 °F 92% 30.35 in 0.2 mi Calm Calm - N/A Fog Light Freezing Fog
5:25 AM 24.8 °F - 24.8 °F 100% 30.35 in 0.2 mi Calm Calm - N/A Fog Light Freezing Fog
5:32 AM 26.6 °F - 23.0 °F 86% 30.35 in 0.5 mi Calm Calm - N/A Fog Light Freezing Fog
5:37 AM 26.6 °F - 23.0 °F 86% 30.35 in 1.2 mi Calm Calm - N/A   Partly Cloudy
5:40 AM 26.6 °F - 23.0 °F 86% 30.35 in 3.0 mi Calm Calm - N/A   Partly Cloudy
5:54 AM 26.1 °F - 24.1 °F 92% 30.35 in 3.0 mi Calm Calm - N/A   Clear
6:05 AM 24.8 °F - 21.2 °F 86% 30.34 in 1.8 mi Calm Calm - N/A   Clear
6:14 AM 24.8 °F - 21.2 °F 86% 30.33 in 0.5 mi Calm Calm - 0.00 in Fog Light Freezing Fog
6:20 AM 24.8 °F - 21.2 °F 86% 30.34 in 2.0 mi Calm Calm - N/A   Clear
6:27 AM 23.0 °F - 21.2 °F 93% 30.33 in 7.0 mi Calm Calm - 0.00 in   Clear
6:54 AM 24.1 °F - 21.9 °F 91% 30.32 in 8.0 mi Calm Calm - 0.00 in   Clear
7:54 AM 30.0 °F - 28.9 °F 96% 30.32 in 5.0 mi Calm Calm - N/A   Clear
8:54 AM 37.9 °F 35.5 °F 33.1 °F 83% 30.33 in 10.0 mi Variable 3.5 mph - N/A   Clear
9:54 AM 46.0 °F 41.9 °F 34.0 °F 63% 30.33 in 10.0 mi SE 8.1 mph - 0.00 in   Clear
10:54 AM 46.9 °F - 35.1 °F 63% 30.31 in 10.0 mi South 10.4 mph - 0.00 in Rain Light Rain
11:54 AM 46.4 °F 42.4 °F 35.6 °F 66% 30.28 in 10.0 mi SSW 8.1 mph - N/A   Overcast
12:54 PM 50.0 °F - 37.9 °F 63% 30.21 in 10.0 mi South 11.5 mph - 0.00 in   Overcast
1:54 PM 48.9 °F - 37.9 °F 66% 30.13 in 10.0 mi South 12.7 mph 25.3 mph 0.00 in   Clear
2:54 PM 51.8 °F - 41.0 °F 67% 30.10 in 10.0 mi SSW 10.4 mph - N/A   Mostly Cloudy
3:54 PM 53.1 °F - 42.1 °F 66% 30.07 in 10.0 mi SSW 10.4 mph - 0.00 in   Mostly Cloudy
4:54 PM 54.0 °F - 43.0 °F 66% 30.03 in 10.0 mi SSW 12.7 mph - N/A   Overcast
5:54 PM 53.1 °F - 44.1 °F 71% 30.01 in 10.0 mi South 10.4 mph - N/A   Overcast
6:54 PM 52.0 °F - 44.1 °F 74% 29.99 in 10.0 mi South 9.2 mph - 0.00 in   Mostly Cloudy
7:54 PM 51.8 °F - 44.6 °F 76% 29.99 in 10.0 mi SSW 8.1 mph - N/A   Mostly Cloudy
8:54 PM 52.0 °F - 45.0 °F 77% 29.99 in 10.0 mi SSW 9.2 mph - N/A   Overcast
9:54 PM 51.1 °F - 46.0 °F 83% 29.98 in 10.0 mi SW 6.9 mph - N/A   Overcast
10:54 PM 51.1 °F - 46.0 °F 83% 29.98 in 10.0 mi SW 9.2 mph - N/A   Overcast
11:54 PM 48.9 °F - 45.0 °F 86% 29.96 in 10.0 mi SW 6.9 mph - N/A   Scattered Clouds